Flag for Germany Weather past 2 weeks in Hannover, Lower Saxony, Germany

Now
43 °F

Passing clouds.


Feels Like: 36 °F
Forecast: 35 / 62 °F
Wind: 13 mph from Northwest

Location: Hannover


UV Index: 0 (Low)

Visibility: N/A


Pressure: 29.80 "Hg

Humidity: 93%

Dew point: 41 °F

Location of HannoverLocation

Historic Weather in Hannover

°F

Hannover temperature yesterday

Maximum temperature yesterday: 61 °F (at 4:50 PM)
Minimum temperature yesterday: 39 °F (at 5:50 AM)
Average temperature yesterday: 51 °F

Past Weeks' High & Low Weather Summary

 TemperatureHumidityPressure
High70 °F (Apr 3, 2:50 PM)100% (Apr 3, 6:50 AM)30.48 "Hg (Apr 3, 6:50 AM)
Low28 °F (Apr 16, 5:20 AM)34% (Apr 17, 3:50 PM)29.62 "Hg (Apr 3, 5:20 PM)
Average50 °F78%30.01 "Hg
* Reported Apr 3 4:20 AM — Apr 18 4:20 AM, Hannover, Weather by CustomWeather, © 2014

Note: Actual official high and low records may vary slightly from our data, if they occured in-between our weather recording intervals... More about our weather records

Advertising

Historic Weather Conditions — Data for Previous 24 hours

 ConditionsComfort  
Time TempWeatherWind HumidityBarometerVisibility
4:20 AM
Apr 18
43 °FPartly cloudy.9 mph93%29.80 "HgN/A
3:50 AM45 °FLight rain. Partly cloudy.8 mph93%29.80 "HgN/A
3:20 AM45 °FLight rain. Mostly cloudy.5 mph93%29.80 "HgN/A
2:50 AM45 °FLight rain. Overcast.5 mph93%29.80 "Hg5 mi
2:20 AM45 °FLight rain. Passing clouds.7 mph93%29.83 "HgN/A
1:50 AM45 °FLight rain. Overcast.10 mph93%29.83 "Hg5 mi
1:20 AM46 °FLight rain. Mostly cloudy.12 mph93%29.83 "Hg4 mi
12:50 AM46 °FLight rain. Mostly cloudy.15 mph93%29.83 "Hg4 mi
12:20 AM50 °FLight rain. Passing clouds.17 mph76%29.83 "Hg6 mi
11:50 PM
Apr 17
52 °FLight rain. Passing clouds.16 mph62%29.83 "HgN/A
11:20 PM54 °FLight rain. Clear.10 mph54%29.83 "HgN/A
10:50 PM54 °FLight rain. Mostly cloudy.16 mph54%29.83 "HgN/A
10:20 PM54 °FLight rain. Mostly cloudy.12 mph54%29.86 "HgN/A
9:50 PM54 °FLight rain. Clear.17 mph54%29.86 "HgN/A
9:20 PM54 °FSunny.5 mph51%29.86 "Hg10 mi
8:50 PM55 °FSunny.5 mph47%29.89 "Hg10 mi
8:20 PM55 °FSunny.5 mph47%29.89 "Hg10 mi
7:50 PM57 °FPassing clouds.5 mph41%29.92 "HgN/A
6:50 PM59 °FSunny.8 mph39%29.92 "Hg10 mi
6:20 PM59 °FSunny.13 mph39%29.95 "Hg10 mi
5:50 PM61 °FSunny.14 mph34%29.95 "Hg10 mi
5:20 PM59 °FSunny.15 mph36%29.95 "Hg10 mi
4:50 PM61 °FSunny.14 mph36%29.98 "Hg10 mi
4:20 PM59 °FPassing clouds.14 mph36%30.01 "HgN/A
3:50 PM59 °FPassing clouds.14 mph34%30.04 "HgN/A
3:20 PM59 °FPassing clouds.14 mph36%30.04 "HgN/A
2:50 PM59 °FPassing clouds.12 mph36%30.07 "HgN/A
2:20 PM57 °FPassing clouds.10 mph41%30.09 "HgN/A
1:50 PM57 °FPassing clouds.10 mph39%30.12 "HgN/A
1:20 PM57 °FPassing clouds.10 mph41%30.12 "HgN/A
12:50 PM57 °FPassing clouds.12 mph39%30.15 "HgN/A
12:20 PM57 °FSunny.12 mph41%30.18 "Hg10 mi
11:50 AM55 °FSunny.13 mph44%30.21 "Hg10 mi
11:20 AM54 °FPassing clouds.10 mph44%30.21 "HgN/A
10:50 AM54 °FSunny.12 mph44%30.21 "Hg10 mi
10:20 AM52 °FSunny.10 mph47%30.24 "Hg10 mi
9:20 AM48 °FSunny.10 mph54%30.24 "Hg10 mi
8:50 AM48 °FSunny.8 mph50%30.27 "Hg10 mi
8:20 AM45 °FSunny.6 mph57%30.27 "Hg10 mi
7:50 AM45 °FSunny.8 mph57%30.27 "Hg10 mi
7:20 AM43 °FPassing clouds.8 mph61%30.27 "HgN/A
6:50 AM39 °FClear.8 mph61%30.27 "Hg10 mi
6:20 AM39 °FClear.7 mph61%30.27 "Hg10 mi
5:50 AM39 °FClear.6 mph61%30.27 "Hg10 mi
5:20 AM41 °FClear.7 mph57%30.30 "Hg10 mi
Weather by CustomWeather, © 2014

See weather overview